Погода в Измайлихе

Россия / Приморский край     46°06′43″N   134°42′19″E
темп.,
°C
ветер,
м/с
пор.,
м/с
влажн.,
%
обл.,
%
осадки,
мм/ч
давл.,
гПа
погр.,
м
4 марта, чт
чт401:00−6юв4995100 0.9 1020405
04:00−7юв3795100 2.7 1017260
07:00−5ююв21295100 1.1 1017468
10:000ююз41278100 1.2 1017824
13:00+4юз4971100 0.0 10151050
16:00+5юз1872100 0.0 10121210
19:000зсз1295100 0.0 101236
22:00−1ююв1298100 0.1 101235
5 марта, пт
пт501:00−1юз21085100 0.1 1012365
04:00−2юз3149395 0.2 1012562
07:00−1юз31097100 0.2 1013398
10:000юз41197100 1.4 1013602
13:00−5сз5990100 2.6 1016705
16:00−9сз5776100 3.9 1021980
19:00−14сз497552 0.0 1026888
22:00−17зсз3128126 0.0 1029991
6 марта, сб
сб601:00−20зсз310800 0.0 1032891
04:00−21з39830 0.0 1034730
07:00−21з38863 0.0 1035594
10:00−18з377620 0.0 1036855
13:00−15з4676100 0.1 10341024
16:00−12з4775100 0.1 10331083
19:00−14зюз2786100 0.1 1033325
22:00−16юз249561 0.1 103499
7 марта, вс
вс701:00−16юз27950 0.0 1033212
04:00−17юз25953 0.0 1032137
07:00−17юз139434 0.0 1032105
10:00−13юз247967 0.0 1031392
13:00−8зюз246591 0.0 1027845
16:00−6з246295 0.0 10251036
19:00−10сз228696 0.0 102541
22:00−12зюз119497 0.0 102721
8 марта, пн
пн801:00−13зюз149799 0.1 1027135
04:00−15юз129891 0.1 102820
07:00−15юз129853 0.0 102922
10:00−11зюз258676 0.1 1029392
13:00−6з367133 0.0 1028776
16:00−4з366817 0.0 1026794
19:00−8зюз12924 0.0 102521
22:00−10ююв12927 0.0 102621